Flag for U.S.A. Weather past 2 weeks in Sheboygan, Wisconsin, U.S.A.

Now
52 °F

Sunny.


Feels Like: 47 °F
Forecast: 35 / 47 °F
Wind: 16 mph from North

Location: Sheboygan County Memorial Airport

Current Time: Apr 27, 2015 at 10:45:50 AM

Latest Report: Apr 27, 2015 at 9:53 AM


Visibility: 10 mi

Pressure: 30.13 "Hg

Humidity: 49%

Dew point: 33 °F

Location of SheboyganLocation

Historic Weather in Sheboygan — Graph

°F

Sheboygan temperature yesterday

Maximum temperature yesterday: 54 °F (at 1:53 PM)
Minimum temperature yesterday: 33 °F (at 4:53 AM)
Average temperature yesterday: 43 °F

Past Weeks' High & Low Weather Summary

 TemperatureHumidityPressure
High64 °F (Apr 13, 3:53 PM)97% (Apr 20, 1:53 AM)30.38 "Hg (Apr 20, 1:53 AM)
Low24 °F (Apr 24, 5:53 AM)22% (Apr 13, 4:53 PM)29.18 "Hg (Apr 20, 4:53 AM)
Average45 °F61%29.94 "Hg
* Reported Apr 12 9:53 AM — Apr 27 9:53 AM, Sheboygan, Weather by CustomWeather, © 2015

Note: Actual official high and low records may vary slightly from our data, if they occured in-between our weather recording intervals... More about our weather records

Advertising

Sheboygan weather history for previous 24 hours

 ConditionsComfort  
Time TempWeatherWind HumidityBarometerVisibility
9:53 AM
Mon, Apr 27
52 °FSunny.16 mph49%30.13 "Hg10 mi
8:53 AM49 °FSunny.10 mph57%30.12 "Hg10 mi
7:53 AM46 °FSunny.9 mph58%30.11 "Hg10 mi
6:53 AM40 °FSunny.9 mph70%30.11 "Hg10 mi
5:53 AM38 °FClear.8 mph73%30.11 "Hg10 mi
4:53 AM38 °FClear.8 mph73%30.09 "Hg10 mi
3:53 AM38 °FClear.7 mph73%30.10 "Hg10 mi
2:53 AM40 °FClear.8 mph68%30.09 "Hg10 mi
1:53 AM39 °FPassing clouds.8 mph70%30.09 "Hg10 mi
12:53 AM37 °FClear.6 mph76%30.10 "Hg10 mi
11:53 PM
Sun, Apr 26
38 °FClear.6 mph73%30.09 "Hg10 mi
10:53 PM39 °FClear.7 mph73%30.09 "Hg10 mi
9:53 PM40 °FClear.10 mph70%30.08 "Hg10 mi
8:53 PM39 °FClear.10 mph70%30.08 "Hg10 mi
7:53 PM41 °FSunny.8 mph62%30.06 "Hg10 mi
6:53 PM46 °FSunny.14 mph50%30.05 "Hg10 mi
5:53 PM47 °FSunny.13 mph46%30.05 "Hg10 mi
4:53 PM51 °FSunny.N/A36%30.04 "Hg10 mi
3:53 PM52 °FSunny.13 mph40%30.04 "Hg10 mi
2:53 PM53 °FSunny.17 mph38%30.05 "Hg10 mi
1:53 PM54 °FSunny.13 mph40%30.05 "Hg10 mi
12:53 PM51 °FSunny.10 mph48%30.06 "Hg10 mi
11:53 AM51 °FSunny.13 mph50%30.06 "Hg10 mi
10:53 AM53 °FSunny.9 mph38%30.06 "Hg10 mi
Weather by CustomWeather, © 2015

See weather overviewHow to use our weather pages